FW6576 Weather Reports


time (UTC)temp
F
wind
direction
speed
knots
gust
knots
rain 1hr
in
rain 24hr
in
rain mn
in
humidity
%
barometer
mb
20260506092004 66 270 0.0 1.7 0.00 0.09 0.09 96 1011.4
20260506090944 66 270 0.0 1.7 0.00 0.09 0.09 96 1011.4
20260506090434 66 180 0.0 3.5 0.00 0.09 0.09 96 1011.5
20260506085925 66 270 0.9 3.5 0.00 0.09 0.09 96 1011.5
20260506085413 67 293 0.9 3.5 0.00 0.09 0.09 96 1011.5
20260506084903 67 293 0.0 1.7 0.00 0.09 0.09 96 1011.7
20260506084356 67 315 0.0 1.7 0.00 0.09 0.09 96 1011.6
20260506083843 67 270 0.0 1.7 0.00 0.09 0.09 96 1011.5
20260506083333 67 338 0.0 1.7 0.00 0.09 0.09 96 1011.5
20260506082823 67 293 0.0 1.7 0.09 0.09 0.09 96 1011.5
20260506082312 67 248 0.0 1.7 0.09 0.09 0.09 96 1011.4
20260506081802 67 248 0.0 1.7 0.09 0.09 0.09 95 1011.2
20260506081252 67 315 0.0 1.7 0.09 0.09 0.09 95 1011.5
20260506080741 67 293 0.0 1.7 0.09 0.09 0.09 95 1011.7
20260506080232 67 293 0.0 1.7 0.09 0.09 0.09 95 1011.6
20260506073131 68 225 0.0 1.7 0.05 0.05 0.06 93 1012.1
20260506072111 68 270 0.0 1.7 0.00 0.00 0.00 92 1012.3
20260506071602 68 158 0.0 3.5 0.00 0.00 0.00 92 1012.3
20260506071052 68 225 0.0 3.5 0.00 0.00 0.00 92 1012.3
20260506062419 68 270 0.0 1.7 0.00 0.00 0.00 91 1012.5
20260506061400 68 158 0.9 1.7 0.00 0.00 0.00 91 1012.4
20260506060848 68 315 0.0 1.7 0.00 0.00 0.00 91 1012.7
20260506060336 68 135 0.9 1.7 0.00 0.00 0.00 91 1013.1
20260505124350 65 248 0.0 0.0 0.00 0.00 0.00 82 1014.4
20260505123839 65 248 0.0 1.7 0.00 0.00 0.00 82 1014.4
20260505123329 65 248 0.0 1.7 0.00 0.00 0.00 82 1014.2
20260505122309 65 315 0.0 1.7 0.00 0.00 0.00 82 1014.5
20260505121759 65 315 0.0 1.7 0.00 0.00 0.00 82 1014.3
20260505121249 65 315 0.0 1.7 0.00 0.00 0.00 82 1014.3
20260505120738 64 293 0.0 1.7 0.00 0.00 0.00 82 1014.5
20260505120232 64 315 0.0 1.7 0.00 0.00 0.00 82 1014.4
20260505115720 64 315 0.0 1.7 0.00 0.00 0.00 81 1014.0
20260505114700 64 23 0.0 1.7 0.00 0.00 0.00 81 1014.1
20260505114150 64 0 0.0 0.0 0.00 0.00 0.00 81 1013.8
20260505113638 64 315 0.0 0.0 0.00 0.00 0.00 81 1014.0
20260505112618 63 315 0.0 0.0 0.00 0.00 0.00 81 1013.6
20260505112107 63 315 0.0 0.0 0.00 0.00 0.00 81 1013.6
20260505111556 63 315 0.0 0.0 0.00 0.00 0.00 81 1013.5
20260505111047 63 315 0.0 0.0 0.00 0.00 0.00 82 1013.7
20260505110537 62 315 0.0 0.0 0.00 0.00 0.00 82 1013.4
20260505101355 62 315 0.0 0.0 0.00 0.00 0.00 82 1012.9
20260505100845 62 315 0.0 0.0 0.00 0.00 0.00 82 1013.0
20260505100335 62 315 0.0 0.0 0.00 0.00 0.00 82 1012.8
20260505095315 62 315 0.0 0.0 0.00 0.00 0.00 81 1012.6
20260505094807 62 315 0.0 0.0 0.00 0.00 0.00 81 1012.6
20260505093744 62 315 0.0 0.0 0.00 0.00 0.00 81 1012.9
20260505093234 62 315 0.0 0.0 0.00 0.00 0.00 81 1012.7
20260505092724 62 315 0.0 0.0 0.00 0.00 0.00 81 1012.6
20260505092214 62 315 0.0 0.0 0.00 0.00 0.00 81 1012.8